GFSSW_sfc_thetae_000.txt.gz
Theta_e
316 316 315 316 316 315 315 314 316 316 316 317 317 317 319 318 317 315 303 309 310 324 321 310 309 306 302 298 297 294 288 285 286 289 290 293 293 296 298 297 299 306 311 313 319
316 316 316 316 315 316 314 315 316 316 316 316 316 318 318 317 316 305 315 322 324 326 307 307 305 306 298 296 298 292 286 289 293 293 288 291 292 294 294 297 298 310 313 317 325
315 315 315 315 315 314 315 316 316 316 316 316 316 317 317 315 308 304 321 324 326 323 309 308 308 305 298 298 296 296 290 294 296 296 294 293 296 297 294 293 298 308 310 316 320
316 315 315 314 315 315 316 316 316 316 316 315 316 317 317 314 295 307 325 327 329 320 311 308 305 301 297 296 297 293 297 298 297 297 296 294 298 297 298 296 303 307 314 315 317
316 316 316 316 316 317 316 316 316 316 315 315 316 317 313 305 304 313 325 320 313 312 308 305 304 301 298 299 299 296 297 299 300 300 297 300 296 297 296 299 302 305 307 309 311
315 315 316 316 316 317 316 316 315 315 315 314 316 315 309 299 311 313 313 313 311 308 307 306 303 304 301 300 298 301 300 299 300 299 299 298 296 296 299 297 301 304 303 304 305
315 315 315 316 316 316 316 316 315 315 314 314 315 316 313 303 309 310 312 310 311 309 306 307 306 304 302 300 304 302 296 298 299 298 297 297 291 293 298 298 300 300 302 304 305
315 315 314 314 314 314 315 314 314 314 314 313 314 314 302 312 310 312 311 311 313 313 310 308 308 304 302 303 302 297 295 290 297 299 298 294 289 296 296 298 298 299 299 302 303
314 314 314 313 313 314 314 314 314 315 315 314 312 310 303 315 310 311 310 310 311 312 311 312 308 302 301 294 291 292 287 290 294 298 295 292 290 297 298 297 298 296 296 298 299
314 314 313 313 313 312 312 314 315 314 313 315 315 304 308 305 309 310 308 308 306 307 307 305 300 295 293 290 284 287 288 287 288 294 295 293 293 296 297 296 297 294 296 298 300
314 314 313 313 314 313 314 313 309 303 307 300 301 303 304 308 310 306 308 307 305 304 297 299 294 289 291 294 295 292 290 289 291 296 296 293 292 296 295 293 294 295 296 297 299
314 314 313 313 313 313 316 310 311 311 301 306 305 305 307 306 303 305 306 301 301 295 296 295 291 296 298 297 295 293 291 290 293 297 295 294 293 292 294 293 295 296 296 297 298
313 313 313 312 312 314 312 312 321 318 304 302 305 304 305 306 302 302 302 300 298 296 294 292 295 299 297 295 293 291 291 290 291 295 294 294 291 291 295 296 297 297 297 298 298
312 312 312 312 310 313 311 315 319 318 294 297 302 305 306 305 302 306 305 302 299 295 295 295 298 295 295 294 293 289 295 295 293 291 286 293 284 290 292 293 295 296 296 297 299
312 312 312 314 314 311 314 318 319 315 282 300 301 309 306 301 301 302 306 303 295 295 295 293 293 293 293 293 295 292 296 295 294 290 288 290 286 289 292 291 294 294 297 296 297
311 312 312 317 313 312 319 319 316 295 284 297 302 301 301 301 301 303 304 306 303 299 298 295 297 295 294 298 298 299 296 295 294 290 282 289 286 287 290 293 294 296 297 298 297
311 311 316 321 311 318 320 312 295 285 301 296 297 300 298 297 299 300 299 296 293 289 289 296 295 297 299 295 298 295 290 281 280 279 280 291 287 287 292 296 297 297 296 296 298
310 310 318 321 319 318 314 300 287 296 296 300 299 298 296 296 297 298 296 293 297 295 290 289 287 296 299 295 292 293 291 281 277 276 280 290 284 289 296 297 297 297 298 299 297
311 317 314 316 320 319 306 288 287 295 298 297 298 294 294 297 295 296 294 294 296 296 290 288 290 299 299 299 297 294 288 294 285 277 278 284 290 294 296 298 298 297 298 298 298
312 314 309 317 318 313 296 291 295 299 300 300 293 296 292 294 294 294 293 297 297 299 298 295 289 297 299 300 298 295 296 286 284 275 278 284 285 287 293 296 298 296 295 297 297
318 305 310 317 316 304 289 289 296 300 302 299 297 295 296 294 295 294 294 297 299 298 300 296 293 291 295 294 292 291 289 291 292 285 280 278 283 293 295 297 297 298 297 295 297
311 296 308 314 300 297 292 298 299 300 303 301 300 298 296 297 295 295 295 297 300 299 295 297 289 283 290 296 298 295 292 292 281 283 282 281 286 298 297 299 297 296 297 298 296
304 304 313 312 288 287 297 300 301 301 300 300 298 299 300 296 290 296 297 301 300 299 295 295 286 280 285 290 295 293 294 293 290 283 282 275 282 298 298 296 297 296 296 297 297
302 293 301 304 302 297 295 297 297 302 300 302 300 301 298 296 297 292 296 301 301 300 301 298 291 286 281 285 291 289 292 293 288 277 283 286 287 292 295 295 296 296 296 296 297
302 295 301 290 295 297 298 300 297 297 301 301 299 298 296 289 291 291 296 297 300 300 298 295 286 289 290 292 293 293 292 292 289 288 282 286 287 291 292 293 295 296 298 298 298
300 300 301 298 301 297 294 296 297 298 299 297 296 298 298 293 293 290 295 294 294 297 294 296 284 286 288 292 292 289 291 291 290 290 288 289 288 294 296 296 296 296 297 296 297
306 305 301 294 294 289 291 297 298 300 300 301 299 296 290 297 299 300 300 299 298 295 290 290 284 281 284 287 286 283 286 288 289 291 289 283 288 295 294 296 296 297 297 297 296

GFSSW_sfc_thetae_003.txt.gz
Theta_e
316 316 316 315 315 315 315 315 315 316 316 317 317 318 319 319 317 314 300 307 308 324 322 307 306 305 301 297 294 291 287 284 285 287 289 291 292 295 295 300 298 307 308 311 324
316 316 316 316 315 315 314 314 316 316 316 317 317 317 318 317 314 303 315 321 323 324 306 305 304 304 296 294 295 291 286 288 292 291 289 291 294 292 293 297 305 310 312 316 322
316 316 315 315 315 314 314 315 316 315 316 316 317 317 318 315 303 302 320 324 326 322 308 307 306 303 297 297 295 290 290 293 295 294 294 292 294 295 293 292 303 307 309 318 321
316 315 314 314 314 314 314 315 316 316 316 316 316 318 317 312 292 305 326 327 328 318 309 305 303 299 296 296 297 293 294 296 295 296 294 293 296 295 296 295 302 310 311 317 319
316 316 316 315 314 315 316 315 315 316 316 315 316 318 310 302 303 311 323 318 310 309 305 303 301 299 297 297 297 294 295 297 297 297 295 297 295 295 295 297 300 309 311 315 317
315 315 316 316 316 316 316 315 315 315 315 315 316 317 306 297 309 310 310 311 309 307 305 304 302 301 299 298 296 299 297 297 298 297 297 296 295 294 297 296 299 304 309 311 312
315 315 315 316 316 316 316 315 315 315 315 315 316 315 308 302 307 309 311 307 308 308 306 305 304 302 300 298 301 299 295 297 296 296 296 296 291 293 296 296 298 301 303 303 305
315 314 314 314 314 314 315 314 314 314 314 313 315 314 301 310 309 310 310 309 311 310 308 307 307 302 299 300 299 294 293 289 295 295 295 292 288 295 294 294 295 297 299 301 302
314 314 313 313 313 313 313 313 314 314 313 313 312 307 301 314 308 309 307 305 307 308 308 311 306 299 298 291 289 290 285 287 291 296 295 292 289 295 296 295 296 295 296 297 298
314 314 313 313 313 313 313 313 314 312 313 313 313 301 306 303 307 307 307 306 304 305 305 303 297 293 291 289 283 285 285 286 287 292 295 291 291 295 296 294 295 291 293 293 296
314 314 313 313 313 312 311 309 307 302 307 298 299 301 302 306 307 305 305 305 304 301 295 297 292 288 289 291 293 291 288 288 290 294 295 292 292 295 293 292 292 291 294 296 298
313 313 313 313 312 313 313 310 308 308 298 305 302 302 305 304 301 303 305 300 299 293 294 294 290 294 296 295 293 292 289 288 292 295 293 293 292 291 293 292 293 294 294 296 297
313 313 313 312 312 313 312 313 320 314 298 300 303 302 303 304 299 301 301 299 297 294 293 291 293 297 295 292 291 289 289 288 290 293 292 292 290 290 294 295 296 296 295 296 297
312 312 312 314 314 311 309 313 316 312 291 296 300 303 304 303 300 303 303 300 298 292 293 293 295 294 293 292 291 287 292 292 292 290 285 290 283 290 290 291 294 294 294 294 296
311 312 312 316 312 308 313 317 318 310 279 298 299 307 303 299 298 302 306 301 295 295 293 292 291 292 292 292 294 292 295 293 292 289 287 289 284 289 291 289 291 292 295 295 296
311 312 312 317 310 311 317 314 313 292 282 295 300 299 298 300 299 303 303 304 302 297 297 294 295 294 293 296 296 297 294 292 291 288 282 286 285 285 288 291 292 295 295 296 296
311 311 316 319 308 315 316 309 293 283 299 294 295 298 296 295 297 298 297 295 292 287 288 295 295 297 298 294 297 294 289 280 279 278 279 289 285 286 292 294 295 295 296 296 295
310 312 317 318 317 316 310 298 285 294 293 298 297 296 293 295 295 297 295 292 295 293 289 288 285 295 299 294 291 291 289 280 276 275 279 288 283 288 294 296 297 298 296 297 298
312 317 311 313 317 316 302 286 286 292 295 295 296 293 293 296 294 294 293 292 294 295 289 287 289 297 298 298 295 292 287 292 283 276 277 283 289 292 295 296 296 295 296 295 296
313 309 306 315 316 306 293 290 293 297 298 298 291 294 290 294 293 292 292 295 295 298 296 293 287 295 297 298 297 294 294 285 283 274 276 283 284 286 291 294 295 294 293 294 294
316 300 307 316 311 299 287 287 295 299 300 297 295 294 294 292 293 292 293 296 297 297 298 293 291 289 293 292 290 290 288 289 289 284 278 275 282 292 292 294 294 293 294 294 294
306 295 307 310 299 293 291 295 298 299 302 300 299 297 295 294 293 293 293 296 298 298 293 294 288 282 288 294 296 294 291 289 283 281 281 277 283 294 295 295 295 293 296 296 296
303 302 309 306 289 285 296 298 299 298 298 298 296 298 298 294 289 294 295 299 299 297 293 294 285 280 284 289 291 290 292 291 287 282 281 276 281 294 296 294 295 294 295 296 296
300 292 300 301 298 295 294 295 295 300 299 299 298 299 296 294 295 291 294 299 300 299 300 297 289 284 280 284 289 288 290 291 288 276 281 283 287 292 292 292 294 295 295 296 296
299 294 299 289 293 296 296 297 295 295 298 299 297 296 294 288 289 290 294 296 298 299 297 294 286 287 288 290 291 291 290 291 288 287 284 286 286 289 291 293 294 296 296 296 297
300 298 298 297 298 294 292 294 296 296 297 295 295 296 296 292 292 289 293 293 293 295 293 294 283 285 285 290 290 288 290 289 290 289 287 287 286 291 294 295 295 296 296 295 295
303 302 299 291 290 288 289 295 296 298 298 299 298 294 288 296 298 298 298 298 296 293 289 289 283 281 278 286 284 280 284 287 288 288 288 283 287 292 293 294 295 295 295 295 295

GFSSW_sfc_thetae_006.txt.gz
Theta_e
316 315 315 315 315 315 315 315 314 315 316 317 317 318 319 318 316 312 299 308 309 323 321 306 305 303 299 296 293 290 286 283 285 286 288 290 293 292 295 300 299 307 309 311 324
315 316 316 316 315 315 314 314 314 315 316 316 317 317 318 317 312 301 315 321 323 324 306 305 302 302 296 293 293 290 285 287 290 290 292 290 291 292 294 300 305 306 312 318 321
316 316 316 316 315 314 314 313 315 316 316 317 317 318 317 315 300 300 323 326 327 322 307 306 304 300 297 295 293 293 289 291 293 292 291 291 292 293 294 294 303 304 309 316 318
316 316 315 315 315 314 313 313 315 316 316 317 317 317 317 309 293 303 325 326 328 314 305 304 303 299 296 294 295 292 293 293 293 294 293 291 295 293 291 295 303 308 313 317 318
316 316 315 314 314 313 314 314 315 316 316 316 317 317 310 300 301 309 322 318 309 308 304 302 300 298 295 296 296 294 293 295 296 296 294 296 293 293 295 298 297 306 313 317 318
315 315 315 315 314 314 314 315 315 315 315 316 316 317 304 297 307 308 309 309 307 305 304 303 300 299 298 296 295 297 295 295 296 296 295 294 294 297 295 294 296 307 308 313 316
314 315 315 315 316 316 316 315 315 315 315 316 316 314 302 301 305 307 310 305 306 306 304 303 302 300 298 296 300 297 294 295 296 295 294 294 291 292 295 294 295 298 306 308 312
315 314 314 314 315 315 315 314 314 315 315 315 316 311 299 309 308 309 307 305 306 307 306 306 305 301 298 298 296 292 291 288 294 294 294 292 288 295 293 293 295 295 300 305 306
314 313 313 313 313 313 313 313 314 314 315 314 310 306 298 313 307 307 305 303 305 306 307 308 303 297 296 290 288 288 284 286 290 295 295 291 289 294 293 295 295 293 294 297 297
314 314 313 313 313 312 312 313 314 312 312 311 310 299 304 301 305 306 304 305 303 303 303 300 295 291 291 288 282 285 284 284 285 292 294 291 290 294 296 294 293 291 291 294 294
314 314 313 312 313 312 310 308 303 301 305 297 297 299 300 304 305 304 303 303 302 299 293 296 291 287 288 290 291 289 287 286 289 292 293 290 290 291 291 291 291 290 292 295 296
313 313 313 313 313 312 309 308 305 307 296 302 301 301 303 302 300 303 304 299 298 292 293 293 288 292 294 293 291 290 287 286 290 293 292 291 290 290 293 291 291 292 294 295 295
313 313 313 312 312 311 311 311 318 311 295 299 301 300 301 303 298 300 301 298 295 292 292 290 291 295 293 291 291 289 287 286 288 291 291 289 287 290 292 294 294 294 293 295 295
312 312 312 313 312 309 307 312 316 306 290 294 299 301 302 301 297 301 303 299 296 291 292 292 293 293 293 291 290 287 291 291 290 288 284 289 282 289 290 290 292 293 293 292 294
311 312 313 314 312 307 311 316 316 306 278 296 298 305 302 298 297 302 305 300 294 294 293 289 290 292 292 291 292 291 294 291 290 287 286 288 283 287 290 288 289 291 293 293 295
311 312 312 314 309 309 315 312 311 289 281 294 298 297 297 298 299 301 301 302 299 296 296 293 295 293 292 294 294 296 292 290 289 287 281 285 284 284 287 289 291 293 294 295 296
311 314 316 316 305 313 312 307 290 282 297 292 293 296 294 294 297 297 295 293 291 286 287 293 293 296 296 293 296 293 286 279 278 277 278 287 284 285 291 292 293 294 294 295 295
311 314 315 316 314 314 307 297 284 291 291 296 294 295 292 293 294 295 293 291 294 292 288 286 283 293 297 292 289 290 288 279 275 274 278 286 282 287 294 294 295 295 295 295 296
313 312 308 312 315 310 301 285 285 290 293 294 295 291 291 295 293 293 291 291 293 293 287 286 287 296 296 296 294 290 286 290 282 275 276 282 287 292 293 295 296 294 294 293 294
314 304 306 313 313 303 293 289 291 296 296 296 290 292 288 292 291 291 290 294 293 296 295 291 286 292 295 296 296 293 293 284 282 273 275 281 282 284 290 292 293 292 292 293 295
311 298 306 313 307 297 286 286 293 298 299 296 293 292 293 291 292 290 291 294 295 295 296 292 289 287 291 290 288 290 287 287 287 283 275 274 281 290 290 291 291 292 294 294 295
301 294 307 308 296 291 289 294 298 297 300 298 297 295 293 293 292 292 291 294 297 296 292 293 287 281 286 292 294 291 289 287 279 279 280 277 280 292 293 293 293 293 295 295 296
301 300 307 305 288 284 294 296 297 297 297 296 295 297 297 292 288 292 294 297 298 296 292 292 285 279 282 287 290 289 290 289 285 282 281 275 280 292 293 293 293 293 294 295 296
299 293 299 300 296 294 292 293 294 299 297 298 296 297 295 292 294 291 292 297 299 297 299 296 287 283 279 283 286 285 289 289 287 282 281 282 286 291 293 291 293 294 295 295 296
298 294 297 289 292 295 295 294 294 293 297 298 295 295 293 287 289 289 293 295 296 298 295 293 285 286 287 289 288 289 288 289 286 286 284 287 285 289 291 290 293 295 295 296 296
299 297 297 295 296 293 291 292 295 294 295 294 294 295 295 290 291 288 292 291 291 294 290 291 283 284 283 287 287 285 288 288 288 288 287 288 287 292 291 292 294 295 295 295 294
300 299 299 290 289 288 288 294 295 297 296 297 297 293 288 295 297 297 297 296 294 291 289 288 282 281 277 284 283 279 283 286 287 288 287 283 288 289 290 293 293 294 294 294 293

GFSSW_sfc_thetae_009.txt.gz
Theta_e
316 316 316 315 315 315 314 314 315 315 315 317 317 318 318 318 316 315 306 312 312 324 320 310 309 307 304 301 299 298 294 291 291 293 295 298 298 300 303 308 305 312 319 318 332
316 315 315 315 315 315 314 314 314 314 316 317 317 318 318 317 313 306 317 322 325 325 310 308 306 304 302 300 299 297 294 293 296 296 297 298 298 299 302 306 309 313 317 325 330
316 316 316 316 316 315 314 314 313 315 316 317 317 318 317 316 307 306 322 326 327 323 312 310 308 306 302 302 300 298 296 297 297 298 299 299 300 300 301 301 307 307 316 325 328
316 315 316 316 315 315 314 313 313 315 316 317 317 318 317 312 298 309 324 325 328 317 309 308 307 304 301 300 301 298 298 299 300 299 299 299 301 299 300 302 306 312 321 325 325
315 316 315 315 314 314 313 312 313 315 316 317 317 317 313 306 307 312 321 317 313 311 306 306 305 303 300 301 302 299 299 300 301 299 300 300 300 300 300 304 303 312 320 323 325
315 315 315 315 314 314 313 313 313 315 316 316 317 317 311 302 311 311 310 311 311 311 308 308 305 305 303 301 301 302 301 300 301 301 301 300 300 300 302 302 303 310 317 323 325
314 314 315 315 315 314 314 314 315 315 315 316 317 315 308 307 311 310 310 311 310 312 309 308 308 306 304 302 303 301 298 299 299 299 300 299 298 298 302 301 301 304 312 319 323
314 314 314 314 315 315 315 314 314 315 315 316 316 313 306 312 313 310 310 310 310 311 311 311 309 305 303 303 300 297 297 295 298 300 300 300 296 301 300 301 302 301 303 312 317
314 314 313 313 313 313 313 313 314 315 315 315 314 312 306 314 309 310 309 307 308 311 310 308 307 301 301 297 295 295 291 292 295 299 300 300 297 302 302 301 302 301 300 306 311
313 314 313 313 313 312 312 313 314 314 313 313 309 306 306 303 307 307 309 309 307 310 307 305 300 298 297 295 289 291 291 293 292 297 300 297 298 300 298 296 298 299 299 302 306
314 314 313 312 313 312 312 312 305 305 307 302 303 301 302 306 307 306 306 308 306 303 299 300 297 293 295 296 295 294 292 292 295 297 298 296 296 297 298 298 297 298 300 302 304
314 314 314 313 312 312 312 311 308 312 300 304 303 303 305 306 302 305 308 303 302 296 298 298 293 296 296 296 295 294 292 292 295 296 297 296 296 296 298 297 298 300 301 302 303
313 313 313 312 312 313 315 316 320 315 299 301 304 303 304 305 301 302 305 304 298 296 295 294 295 297 296 295 295 294 292 292 292 295 296 295 294 295 297 298 299 300 301 302 304
312 312 312 312 311 313 312 316 318 314 293 296 300 303 305 304 300 306 306 303 300 295 297 295 297 297 296 294 295 292 295 295 293 293 291 294 289 294 295 296 298 299 300 302 303
312 312 312 313 313 311 314 317 321 309 282 297 301 307 304 300 301 304 307 305 298 296 298 293 296 296 295 295 297 295 297 295 294 293 292 293 291 293 295 294 296 299 300 302 302
311 313 313 313 313 315 318 317 313 292 282 296 300 299 299 300 301 303 302 305 303 299 299 296 300 298 297 298 298 298 296 293 293 292 288 290 290 291 294 295 296 299 301 301 301
312 314 316 314 308 316 315 309 293 285 297 294 295 298 296 296 298 299 297 296 294 291 291 296 296 300 299 297 299 298 292 287 287 287 286 290 289 291 296 296 297 298 299 301 303
312 313 313 315 316 315 310 299 287 292 294 298 297 297 294 296 296 297 296 294 298 295 292 290 289 296 300 297 294 294 293 287 280 283 285 290 287 291 297 299 299 299 300 300 301
313 310 310 314 316 311 303 289 288 292 296 296 297 294 294 297 296 295 294 294 296 297 292 290 290 298 299 299 298 294 291 293 286 279 285 288 292 295 298 298 299 298 299 299 300
311 306 309 313 314 305 296 290 294 297 298 298 293 295 292 294 294 294 294 297 296 298 299 295 290 295 297 299 299 297 297 289 289 282 280 286 287 290 293 295 296 297 298 300 302
307 303 309 314 308 299 290 290 296 300 301 298 296 295 295 294 294 293 293 296 298 298 299 295 293 291 294 294 293 294 292 291 291 288 284 281 287 295 295 296 296 297 298 300 302
302 299 310 311 298 293 292 296 298 299 301 300 299 298 296 296 294 294 294 296 299 300 295 296 291 287 290 295 297 295 292 291 286 283 286 284 285 296 297 298 298 298 299 301 302
302 303 308 307 291 288 297 298 298 299 298 298 298 299 298 295 292 296 296 300 300 300 297 297 290 284 285 291 294 293 294 291 289 288 285 283 286 295 296 296 298 299 300 301 302
300 296 300 300 298 296 295 295 296 299 298 299 298 299 297 294 296 294 295 300 301 300 299 298 290 287 283 286 290 288 291 292 292 286 286 287 289 294 296 296 297 297 300 301 301
300 297 299 292 295 296 297 297 295 294 299 299 297 297 295 290 293 293 296 297 298 299 298 297 290 290 290 291 291 290 290 291 289 291 286 289 290 294 296 296 297 300 300 299 300
300 298 298 295 297 296 292 296 296 296 297 297 296 298 297 293 293 292 296 295 295 297 296 294 289 289 286 289 288 286 290 290 291 291 290 291 290 297 298 297 298 298 298 297 297
302 301 300 290 291 292 292 296 296 298 298 299 298 295 291 297 300 301 300 298 298 296 293 292 289 285 283 286 286 283 286 289 290 292 291 287 292 294 295 296 297 298 297 294 292

GFSSW_sfc_thetae_015.txt.gz
Theta_e
320 319 319 318 317 316 316 316 315 316 316 317 316 318 319 320 318 322 315 316 318 324 319 318 317 317 315 310 312 311 303 299 300 300 301 306 304 308 312 310 311 313 317 322 328
318 319 318 318 318 317 315 315 315 316 316 316 316 318 319 319 322 315 318 328 329 327 317 315 312 313 310 309 310 307 303 301 304 305 304 305 305 305 307 307 309 313 317 326 328
319 319 318 318 318 316 316 315 316 316 315 315 317 318 319 320 318 313 326 328 330 325 321 318 314 312 308 309 308 306 303 304 304 305 306 305 304 306 305 304 309 310 314 323 325
318 318 318 318 317 316 316 315 316 315 315 316 316 318 319 324 303 317 327 328 329 324 318 315 314 309 307 305 308 302 305 305 305 305 305 304 307 305 306 307 310 312 317 322 323
317 317 317 317 317 316 315 315 315 314 314 315 318 319 322 315 311 320 324 325 324 319 316 313 310 308 304 305 305 304 304 305 306 305 306 307 305 306 305 309 311 314 317 320 322
316 316 316 317 316 316 315 314 314 313 314 317 318 318 321 308 319 320 319 319 320 318 314 314 311 311 307 306 306 308 307 307 307 307 307 305 306 307 308 310 310 312 315 318 320
316 316 316 316 315 315 315 314 313 313 315 317 318 321 319 311 320 320 319 318 319 319 314 316 315 311 311 307 310 309 304 307 307 308 306 308 304 305 310 311 309 310 314 317 318
315 315 315 316 316 315 314 313 314 316 317 317 318 323 311 319 322 317 318 316 319 320 318 318 317 314 312 313 308 305 306 301 306 307 308 308 302 307 310 310 309 311 311 314 317
315 316 315 315 315 315 315 315 315 316 316 318 322 323 308 316 314 316 317 313 316 319 318 316 316 311 311 306 303 304 300 300 302 307 307 306 303 309 311 310 309 311 312 312 315
314 315 315 314 314 314 314 314 315 316 317 321 321 312 311 309 313 314 317 317 315 315 313 312 311 307 307 304 297 298 298 300 299 304 304 303 304 307 309 308 309 311 312 312 313
314 315 315 314 314 313 314 321 316 315 316 310 309 308 309 313 316 313 316 315 315 313 307 309 305 303 303 304 303 301 299 299 302 304 302 302 303 305 308 309 309 311 311 311 313
314 315 314 314 314 314 323 319 319 319 306 311 311 312 313 314 308 312 317 310 309 305 307 304 302 304 305 304 302 301 299 299 302 303 303 303 303 305 306 307 309 310 311 313 314
314 315 315 314 313 320 326 323 328 325 307 307 310 310 310 313 308 309 314 310 306 303 303 302 303 304 303 302 301 302 300 300 299 303 305 303 301 302 305 307 309 310 311 311 311
314 315 314 312 315 327 322 327 332 327 303 301 305 309 310 311 306 314 314 310 306 302 303 303 305 303 302 301 303 299 303 302 301 300 296 304 296 301 303 304 306 308 309 310 311
313 315 312 313 325 320 324 332 335 329 292 303 305 315 311 308 309 309 315 311 303 303 304 301 302 302 301 301 304 301 305 302 302 301 300 300 296 299 303 301 303 306 308 310 311
314 315 313 320 331 327 331 333 331 306 291 300 306 306 306 308 307 310 310 313 311 304 306 304 307 306 304 305 304 306 304 303 303 301 294 299 297 299 301 302 303 306 308 309 311
315 315 316 329 321 333 334 326 301 297 303 299 301 305 305 304 305 306 305 305 303 299 299 302 303 306 307 304 306 305 301 295 293 293 293 299 295 299 303 304 305 305 308 310 312
314 316 322 330 333 334 328 310 297 299 300 304 304 304 301 304 303 304 303 302 305 304 301 298 296 302 305 303 301 301 301 295 286 289 292 298 292 299 305 307 307 308 308 309 310
314 330 329 332 335 332 315 303 300 300 303 302 303 300 300 302 303 303 303 301 303 305 300 298 297 304 305 306 305 301 298 301 295 293 292 295 298 303 305 305 305 306 307 308 308
322 320 322 332 334 327 313 301 302 305 305 305 299 302 298 300 301 302 301 303 302 304 307 301 296 301 303 306 306 303 303 296 298 286 283 291 292 295 300 302 303 304 305 307 308
322 312 326 334 329 316 306 303 303 307 307 304 301 300 302 300 302 300 300 303 304 304 305 302 299 298 301 300 299 301 300 298 297 295 288 286 291 301 301 302 302 304 305 307 308
321 309 327 330 310 313 306 305 303 306 309 307 307 305 303 303 301 301 300 303 306 306 301 303 300 294 295 302 304 302 299 298 292 289 293 291 290 303 303 303 304 304 306 307 308
314 315 326 325 307 310 307 305 307 306 306 306 304 306 307 304 299 302 303 306 307 306 303 303 299 291 293 299 302 298 299 298 296 295 289 289 291 302 303 303 304 304 305 306 306
316 311 315 317 315 308 305 304 303 308 306 307 306 308 306 303 305 302 302 305 307 306 300 303 299 293 290 293 296 294 296 297 296 291 291 292 294 299 300 301 303 304 306 305 305
319 313 313 307 309 310 309 306 303 301 307 308 305 305 304 300 302 301 304 304 304 300 304 304 294 297 297 297 296 295 295 296 294 295 291 294 294 298 300 301 302 304 305 303 303
313 312 314 312 311 309 303 305 303 303 305 303 304 305 305 302 300 300 301 300 299 303 302 302 295 295 292 296 295 293 295 296 296 296 296 296 294 302 303 304 303 302 303 301 301
321 320 317 303 309 307 306 305 305 307 306 307 307 305 302 304 307 308 308 306 304 302 300 299 298 293 289 295 293 289 294 295 296 297 297 292 297 301 300 300 299 300 301 301 298

GFSSW_sfc_thetae_018.txt.gz
Theta_e
320 320 320 319 319 317 316 316 315 316 316 317 317 318 319 320 318 320 314 317 319 324 320 316 316 315 315 311 311 310 301 300 300 301 301 305 303 307 311 310 311 315 317 322 325
320 319 319 320 317 317 316 316 315 317 316 317 317 317 319 319 320 317 322 328 329 327 315 313 312 313 309 309 309 305 301 300 304 304 303 304 305 305 306 306 308 313 322 325 324
320 320 320 320 319 317 316 315 315 316 317 316 316 318 318 319 317 314 326 327 330 326 318 319 315 311 307 309 307 306 300 303 303 305 306 304 303 307 305 303 308 308 318 322 322
318 319 319 319 319 317 316 315 315 316 316 316 316 318 319 320 303 315 328 329 331 323 320 315 312 308 305 304 307 302 304 304 304 305 304 303 305 304 306 306 311 313 317 322 321
316 318 318 318 318 316 316 315 315 315 315 315 316 318 320 316 311 319 325 328 321 321 316 313 310 309 304 305 305 303 303 304 305 305 305 306 304 305 305 309 311 315 316 319 320
317 317 317 317 317 316 316 315 315 315 314 315 318 318 319 308 318 320 319 319 320 317 314 314 311 311 306 305 305 306 305 304 305 305 305 303 305 306 307 308 309 312 315 318 320
317 316 316 316 317 316 315 316 315 314 314 316 318 320 318 312 319 320 319 317 318 318 314 316 315 310 309 306 309 308 303 305 306 306 305 307 303 303 308 309 307 309 312 316 318
317 316 316 316 316 315 314 314 313 314 316 318 318 321 313 319 320 317 318 316 318 319 317 317 316 314 311 311 307 304 305 300 305 307 307 305 299 305 309 308 307 308 310 313 316
317 316 315 315 315 316 315 315 315 316 317 318 319 321 311 318 313 316 317 313 316 317 318 316 315 310 309 303 301 303 297 300 302 307 307 305 301 306 310 309 308 309 310 311 314
316 316 316 315 315 314 315 315 316 315 317 322 322 314 313 309 313 314 317 316 314 314 311 311 310 305 305 302 294 296 298 299 299 304 303 302 302 307 309 308 308 309 310 311 312
316 316 316 315 315 314 313 317 314 313 317 310 309 309 309 312 314 313 315 314 314 312 305 309 303 301 303 303 302 301 299 298 302 304 301 301 302 305 307 308 309 310 313 312 314
315 316 315 315 315 314 317 318 318 318 307 312 311 311 312 314 307 311 316 310 308 304 307 303 300 304 305 304 302 301 299 299 302 304 301 301 301 304 306 307 309 309 310 312 312
315 316 315 314 314 317 322 323 328 328 307 307 311 309 310 314 308 308 313 310 306 304 303 301 302 305 303 302 301 301 299 300 299 302 304 301 299 301 305 307 309 310 312 312 311
315 316 314 313 315 325 322 325 331 330 301 300 305 308 311 312 306 313 314 310 306 302 303 303 305 303 302 301 302 298 304 302 300 299 294 302 292 299 302 303 305 307 309 309 310
315 316 313 312 324 320 324 330 333 330 292 303 305 315 311 308 308 308 314 310 304 303 303 301 302 302 301 302 303 300 304 302 301 299 298 298 295 299 302 300 303 306 308 310 311
316 316 313 318 328 327 331 333 330 307 292 300 306 305 305 307 307 310 308 313 311 304 305 304 307 306 304 305 304 305 304 303 302 300 294 297 296 296 299 301 303 306 308 309 310
315 314 316 329 323 333 336 325 300 297 303 299 301 305 304 303 305 306 305 304 302 298 298 302 303 306 306 303 306 305 301 295 293 294 292 299 294 298 303 305 305 305 307 310 312
316 316 323 330 333 336 329 310 296 300 300 305 304 304 301 304 303 304 304 301 305 304 300 297 295 302 306 303 300 301 300 295 286 288 291 298 292 296 305 306 307 308 308 309 310
315 333 332 334 337 335 316 302 300 300 304 302 303 300 300 302 303 303 303 301 302 305 299 297 297 304 305 305 304 300 297 300 296 293 291 293 298 302 304 304 305 305 307 307 309
322 322 321 333 336 327 313 303 304 306 305 304 298 302 298 300 300 302 301 303 301 304 306 301 296 301 303 305 306 302 302 295 298 287 284 289 292 294 299 301 303 304 305 306 308
327 311 327 334 332 314 306 306 304 307 308 303 302 300 302 300 302 301 301 303 305 304 306 302 299 298 301 300 298 300 298 298 296 295 287 285 289 299 299 302 302 304 305 306 308
326 306 329 334 307 309 307 306 303 306 309 307 307 304 303 303 301 301 301 303 307 306 301 301 299 297 296 301 303 301 298 298 293 290 294 292 289 302 303 303 304 304 305 307 307
313 316 328 328 306 312 308 306 307 305 306 305 305 306 307 304 300 303 304 307 308 306 302 302 299 293 293 299 302 297 299 298 297 296 289 286 289 303 303 302 304 303 304 305 306
318 310 313 316 316 309 306 304 304 309 307 308 306 308 305 303 305 302 302 305 308 305 302 304 299 294 291 292 296 293 295 297 295 291 291 291 293 297 300 301 302 303 305 304 305
319 312 311 306 308 309 308 306 303 302 308 308 305 305 304 300 302 301 304 303 305 301 304 304 295 297 297 296 296 295 294 295 293 294 289 292 293 297 300 301 302 303 303 303 303
314 312 315 311 312 308 304 305 304 304 305 303 303 305 306 303 302 300 303 302 300 303 302 303 297 297 293 296 295 292 294 295 295 295 295 295 294 301 303 303 301 301 302 302 301
321 322 316 306 309 309 307 306 305 307 307 308 307 306 303 305 308 307 307 306 304 302 300 300 299 294 290 294 292 290 295 295 296 297 296 292 297 301 300 300 300 300 302 300 299

GFSSW_sfc_thetae_021.txt.gz
Theta_e
321 321 321 320 320 319 318 316 316 317 317 317 317 318 318 319 317 317 311 315 317 324 318 311 311 312 310 306 307 303 292 292 295 296 296 299 298 301 306 306 312 313 317 318 318
319 320 320 320 319 318 316 316 315 316 317 317 317 317 318 318 317 315 322 324 326 325 309 308 307 309 304 303 303 298 292 293 297 298 296 297 298 300 301 303 311 314 319 318 317
318 318 320 320 320 319 317 316 315 316 317 317 317 317 317 317 315 313 326 327 329 325 312 311 312 308 302 301 300 296 293 296 298 299 299 296 298 301 300 297 309 312 314 316 316
317 317 317 320 320 319 317 316 315 315 317 317 316 317 318 316 303 308 326 328 330 321 315 313 310 301 299 297 299 295 298 299 298 300 298 297 299 298 297 300 309 318 318 317 316
315 315 317 318 318 318 315 315 315 315 316 316 316 317 316 314 311 315 331 328 322 318 315 313 307 303 300 300 299 297 297 299 300 301 300 302 299 300 299 303 309 318 319 317 316
316 317 317 317 317 317 315 315 314 315 315 315 316 318 315 305 316 317 315 318 316 315 314 312 307 306 302 301 297 300 299 298 298 299 300 299 300 299 299 303 307 315 315 315 316
317 316 316 316 316 317 315 314 315 315 314 315 317 317 315 314 313 311 315 310 311 312 310 311 309 305 304 301 305 302 297 299 299 300 299 300 296 298 300 302 304 308 313 313 316
317 316 316 315 316 316 314 314 314 314 315 316 318 316 310 320 311 314 312 311 314 314 313 312 312 307 306 303 302 298 297 292 299 301 301 299 292 299 302 301 301 303 304 310 313
316 316 315 314 314 315 314 313 314 315 317 317 314 315 309 316 310 312 311 310 312 313 313 314 309 305 303 296 293 295 289 294 296 302 300 297 294 299 301 302 300 299 301 304 308
315 315 315 314 314 314 314 315 315 315 315 318 318 309 315 307 311 310 310 312 311 312 310 307 303 298 296 294 288 291 292 293 293 295 297 294 294 298 300 302 301 299 300 302 309
316 315 315 314 314 313 310 309 309 308 313 307 308 310 307 308 310 307 311 310 310 307 299 303 297 293 295 297 298 297 294 294 294 299 297 295 294 297 300 300 299 301 306 307 309
316 315 315 315 314 314 309 313 311 311 303 313 311 310 311 310 304 307 311 306 306 299 302 298 294 299 302 301 299 297 295 295 297 300 296 293 294 297 301 300 302 305 305 306 308
316 314 314 314 314 310 313 317 322 321 301 306 310 307 310 311 306 304 308 306 302 300 300 296 298 303 301 300 298 298 296 295 295 298 296 295 292 296 301 303 305 305 306 306 307
314 314 313 313 311 318 313 321 325 323 294 299 304 306 309 310 304 309 310 306 303 299 300 299 302 301 299 299 298 295 301 300 297 294 288 294 285 293 297 299 302 302 301 303 305
314 315 312 315 312 317 319 324 325 319 282 301 304 311 308 307 305 306 309 307 300 300 300 297 299 300 299 299 301 298 302 299 298 293 291 293 288 291 297 297 299 301 303 303 304
315 315 312 313 312 322 327 327 318 298 283 300 304 303 301 305 306 305 305 308 307 301 301 299 303 301 299 303 302 302 300 299 298 294 284 295 292 293 294 298 300 302 303 304 304
314 313 313 322 318 326 326 316 293 287 302 297 299 303 302 301 302 303 301 299 297 292 293 298 300 302 304 299 302 300 295 285 284 283 283 297 293 294 298 301 302 302 302 303 304
314 312 318 328 330 328 321 304 288 299 298 302 301 302 299 301 301 302 300 296 301 301 296 293 290 299 303 299 295 297 295 283 281 280 283 295 289 291 301 303 304 304 303 304 304
315 319 323 325 328 323 310 293 295 299 301 300 301 298 297 301 300 300 298 297 298 299 295 294 293 301 302 302 300 297 290 296 289 285 281 289 294 299 301 302 303 302 303 302 303
315 317 316 326 327 319 304 298 302 304 304 302 296 299 295 297 297 298 298 301 299 301 301 297 291 299 301 301 302 298 298 289 287 280 279 285 289 290 296 299 302 302 300 301 303
316 305 319 328 322 307 296 302 303 306 307 303 300 298 300 297 298 298 298 301 303 302 300 298 296 294 298 295 294 295 294 294 292 286 280 277 283 294 297 301 300 300 302 300 300
314 300 322 324 300 302 299 306 301 304 308 306 305 302 301 300 299 299 298 300 304 304 297 298 294 285 293 298 300 297 295 295 282 284 283 281 283 297 298 300 299 299 301 301 301
308 310 321 321 292 293 305 305 306 303 304 304 303 305 304 301 296 301 301 305 306 302 298 298 292 283 289 295 298 293 296 296 294 286 283 276 281 298 301 300 302 299 300 300 300
311 298 308 309 309 304 304 301 302 307 306 306 304 305 302 300 302 299 299 305 305 301 301 301 295 289 283 288 291 289 292 293 291 282 283 284 289 294 297 298 298 298 298 298 299
311 304 304 294 299 302 304 303 301 301 305 306 303 303 301 294 298 298 301 301 304 301 301 298 289 293 293 293 293 291 291 291 289 289 283 286 290 294 295 296 298 299 300 299 298
310 309 306 302 302 302 300 301 302 303 303 301 300 302 303 298 299 297 300 298 297 299 298 299 287 287 286 294 292 289 291 292 292 292 291 291 291 298 298 298 297 298 298 297 296
314 315 310 302 300 299 299 303 304 304 305 307 303 300 296 300 302 302 302 301 301 298 296 295 287 283 282 289 287 281 289 292 292 294 292 285 292 296 295 295 295 295 296 296 295

GFSSW_sfc_thetae_024.txt.gz
Theta_e
321 321 321 321 320 320 319 318 316 316 316 316 317 318 318 318 317 315 307 312 316 323 317 308 309 310 310 305 305 301 293 289 292 295 298 299 300 302 306 310 311 312 312 314 314
318 318 319 320 320 319 319 317 315 315 316 316 317 317 317 317 315 313 321 324 324 325 308 306 305 306 303 302 302 297 290 291 296 299 295 297 299 300 306 309 310 311 315 314 314
318 318 318 318 320 319 319 317 315 315 315 317 317 317 315 316 313 312 325 326 327 324 308 309 309 306 301 300 299 295 292 295 297 297 298 297 298 300 305 304 311 310 311 312 312
317 317 316 317 318 319 318 316 315 315 314 316 316 316 316 314 300 308 326 328 329 317 310 310 307 303 299 296 299 293 296 297 296 297 296 297 298 298 297 306 315 315 314 313 312
315 314 315 315 317 318 317 315 315 315 314 315 315 315 314 311 308 316 327 328 324 316 311 309 307 303 297 298 296 295 295 297 298 299 296 298 297 298 297 310 317 316 315 314 314
314 315 316 317 317 317 317 315 314 314 315 315 315 316 311 304 315 314 317 319 314 312 312 311 308 306 301 298 296 297 297 296 297 297 298 298 297 298 297 313 315 315 314 315 315
317 316 316 316 316 316 316 314 313 314 315 315 314 316 313 310 316 314 313 311 312 314 309 309 308 303 302 299 300 298 294 296 295 296 296 299 294 294 299 314 314 314 314 315 315
317 316 315 315 315 315 315 313 313 314 314 315 317 314 307 318 315 310 308 309 311 313 312 310 309 306 302 301 300 296 295 291 296 297 298 297 291 297 298 306 311 312 313 314 314
316 315 315 314 314 314 314 313 313 314 315 317 312 312 303 319 309 311 310 308 311 312 310 311 308 302 301 294 291 293 287 291 294 298 297 295 292 297 298 301 302 304 304 306 308
315 315 314 314 313 313 313 314 315 314 315 316 316 307 312 309 308 308 308 309 308 308 306 304 300 296 294 292 286 289 290 289 291 294 295 293 293 296 296 297 297 296 304 307 308
315 315 314 314 313 313 310 308 305 305 310 302 305 309 308 310 308 306 308 307 307 304 297 301 295 291 293 295 296 296 293 291 291 296 295 293 292 295 297 298 301 304 305 305 306
314 314 314 314 314 313 308 310 308 310 298 309 311 310 312 306 302 304 308 303 303 297 300 296 293 297 299 300 298 296 294 292 295 299 294 293 292 296 298 299 303 304 304 304 306
314 314 314 313 313 309 307 313 319 318 303 304 308 306 306 308 302 302 306 304 300 298 297 294 296 301 300 297 297 296 293 293 293 295 294 293 291 294 300 303 304 304 305 306 306
313 314 312 312 308 311 308 313 317 314 291 297 301 304 307 307 302 306 307 304 301 297 298 296 300 299 298 297 296 293 299 297 295 291 286 292 283 292 296 297 299 300 301 304 307
313 313 312 313 309 314 317 324 321 313 279 298 302 309 306 304 303 303 307 306 298 298 298 295 298 298 296 297 298 296 299 297 296 291 290 291 286 289 296 295 297 299 301 303 304
313 313 311 310 309 315 323 323 310 293 281 297 302 300 299 303 302 302 303 306 304 299 298 297 301 299 297 300 300 300 298 297 295 292 283 293 288 288 291 295 298 301 301 302 302
312 313 311 319 316 323 322 307 292 284 299 295 297 300 298 298 300 299 299 298 295 290 291 297 298 300 302 297 300 297 293 283 283 282 282 295 291 291 296 299 300 300 299 300 301
311 311 312 321 325 322 313 299 288 297 296 299 299 299 296 299 299 300 297 294 298 298 292 290 288 297 301 297 294 295 293 282 281 279 282 291 287 290 299 303 303 302 302 303 302
312 312 319 322 324 318 305 290 293 296 299 298 299 295 295 299 298 298 295 294 296 297 293 291 291 298 299 299 298 295 289 294 286 283 280 287 291 296 300 300 302 303 304 300 300
312 311 310 322 321 310 301 294 300 302 303 300 294 297 293 295 295 296 295 299 297 299 299 296 289 297 298 301 300 295 296 288 285 279 279 283 286 288 294 296 299 298 298 299 301
312 301 309 324 313 302 293 298 302 304 305 301 298 296 297 295 296 295 296 299 301 300 298 296 293 292 298 293 292 293 291 291 289 284 279 276 282 292 296 299 296 297 298 299 300
308 296 316 312 294 297 296 303 302 302 305 303 303 301 298 298 297 297 296 298 303 302 294 296 291 284 291 296 297 295 293 291 281 283 281 279 281 296 296 297 298 298 299 299 301
303 306 317 308 288 288 300 303 303 301 301 301 301 303 302 298 295 299 299 303 302 300 296 295 289 282 287 293 296 292 294 295 290 284 282 275 280 296 298 296 298 297 297 298 297
306 296 303 306 302 298 300 299 300 304 303 304 302 303 300 298 300 297 297 302 301 299 300 300 292 287 283 287 290 286 290 292 289 280 282 282 286 291 294 294 295 296 296 295 296
307 300 300 292 295 300 301 301 299 298 303 303 300 300 299 293 296 295 299 299 301 299 299 296 288 290 290 291 291 289 288 288 287 287 283 285 287 292 293 294 296 297 296 296 295
308 305 302 296 299 299 298 299 299 301 301 299 298 300 300 295 297 295 298 296 295 296 295 296 285 286 284 292 290 286 288 289 290 290 289 290 289 296 296 294 295 296 295 295 296
313 312 304 298 295 295 297 300 301 302 302 304 301 297 294 298 299 299 299 300 299 296 294 292 285 281 279 287 285 280 287 290 290 291 290 285 290 294 292 294 293 293 294 294 293

GFSSW_sfc_thetae_027.txt.gz
Theta_e
320 319 318 318 320 320 320 319 317 315 315 315 317 316 317 317 315 313 307 310 313 323 318 307 306 307 306 302 302 297 292 289 291 299 302 307 300 303 311 312 312 312 309 318 318
318 318 318 318 317 318 319 319 317 315 314 314 315 317 317 315 312 311 319 324 325 325 305 305 303 305 300 298 299 296 290 292 297 299 299 298 306 308 309 308 308 307 311 315 317
318 317 317 317 317 317 319 318 316 315 314 314 315 317 315 315 310 307 324 325 327 321 307 307 306 304 299 299 298 296 293 294 296 298 298 297 300 302 308 304 309 306 308 312 314
317 316 316 316 316 316 317 317 317 315 314 314 316 316 315 312 296 308 327 329 328 312 308 306 304 302 300 298 299 293 295 296 296 297 296 295 298 303 298 309 313 311 311 312 312
315 315 315 315 315 315 316 316 315 314 314 314 316 314 311 308 306 312 329 328 316 311 306 305 305 302 297 296 296 293 294 296 297 297 295 298 296 297 296 311 313 312 311 311 312
314 314 314 314 316 317 317 316 314 313 313 315 315 315 308 298 311 313 317 315 314 311 309 308 306 306 300 297 294 296 294 294 296 296 296 297 295 296 300 311 311 311 310 310 311
316 316 316 316 317 316 316 315 313 313 314 315 314 314 311 304 312 312 315 313 311 311 308 310 310 304 301 295 298 296 293 294 294 294 295 298 293 293 301 312 310 310 311 311 312
317 316 315 315 315 315 315 314 312 313 314 314 316 312 304 314 314 313 307 308 310 312 310 309 307 303 299 299 297 294 293 289 293 295 296 295 289 294 306 310 309 309 310 310 310
316 315 315 314 314 313 314 312 312 313 314 316 310 309 300 315 309 310 308 306 308 309 308 309 306 299 298 292 289 291 286 289 292 296 295 293 290 294 301 310 308 305 303 306 309
315 315 314 314 313 313 313 313 314 313 314 316 315 304 308 304 307 306 306 308 307 307 304 303 299 295 293 290 284 287 288 287 289 293 293 290 293 293 295 299 297 300 304 305 305
315 315 314 313 313 312 309 307 305 304 309 300 302 304 308 307 306 304 306 306 306 303 297 300 294 290 291 293 294 292 290 289 289 294 293 291 291 294 293 298 300 301 303 303 304
314 314 314 314 313 313 307 307 306 311 298 308 310 309 311 309 300 302 306 301 301 295 298 295 291 295 298 299 296 294 291 290 293 296 293 291 291 297 298 299 300 302 302 303 303
313 314 313 313 312 309 307 310 317 312 302 304 305 304 305 307 301 300 304 302 298 296 295 292 294 300 298 296 296 294 291 291 291 293 293 291 289 293 299 301 303 302 303 304 303
313 313 312 312 306 307 304 310 316 311 291 295 300 303 305 305 300 304 305 302 299 295 296 295 300 298 296 295 295 292 297 295 293 290 285 290 282 291 294 295 299 300 301 302 303
312 312 312 312 307 312 314 322 319 309 279 296 300 306 304 301 300 300 305 303 296 296 296 294 296 296 295 295 296 294 297 294 293 289 287 290 285 287 295 293 296 298 301 302 305
312 312 312 310 307 313 320 316 308 292 280 294 300 298 298 300 299 300 301 305 302 297 297 296 299 297 296 298 297 298 296 295 293 290 283 290 286 285 289 294 296 298 302 304 304
312 312 311 316 315 321 318 304 289 284 297 293 295 297 296 296 297 297 298 296 294 289 290 295 296 298 299 296 298 296 291 282 282 281 281 291 288 288 294 297 299 298 299 300 301
311 310 310 313 322 318 307 295 286 295 293 297 297 296 294 297 297 297 296 293 296 295 291 289 287 295 299 295 292 293 291 282 281 278 281 290 285 289 296 299 301 300 300 300 300
310 308 314 319 320 312 301 287 290 294 296 296 297 293 293 296 297 296 293 293 294 295 291 289 289 297 297 297 297 293 287 292 285 282 280 285 289 295 297 298 299 299 300 299 298
311 310 308 319 316 309 298 293 298 301 300 298 293 295 291 293 294 294 294 297 295 296 297 295 288 295 296 298 297 293 296 286 284 278 278 282 285 286 292 295 298 296 296 297 298
309 298 305 319 307 299 290 295 303 302 303 297 295 294 295 293 294 293 294 297 299 298 297 295 291 290 295 292 290 292 289 289 288 283 278 275 281 290 294 296 294 295 296 298 298
304 294 312 305 293 294 295 301 302 300 303 302 301 298 296 296 295 295 294 296 301 300 292 294 290 283 289 294 296 293 291 289 279 281 280 278 280 292 295 296 297 296 297 297 298
301 305 315 303 286 287 296 302 301 299 299 299 299 301 300 297 293 296 297 301 299 298 294 294 288 281 286 291 293 290 292 291 287 283 281 275 280 294 296 295 296 295 296 296 295
303 295 301 304 297 294 296 297 297 302 301 301 300 301 298 297 298 295 296 300 298 296 299 298 290 286 282 285 289 285 288 290 288 280 281 281 283 290 292 293 293 294 294 294 294
304 297 298 292 295 299 299 298 297 296 301 301 298 299 297 292 294 293 297 297 298 298 296 294 286 288 288 289 288 287 287 288 286 286 282 284 285 289 292 292 294 295 294 294 294
304 300 299 293 297 298 296 298 297 298 299 297 296 298 298 294 295 294 296 294 292 295 294 294 284 285 284 289 288 285 287 286 286 287 288 287 287 294 294 294 294 294 294 293 295
306 308 301 294 294 294 295 299 299 300 301 301 300 296 292 296 298 298 298 298 297 294 293 289 284 281 278 284 283 278 285 288 289 290 289 284 289 293 291 292 293 293 293 293 293

GFSSW_sfc_thetae_030.txt.gz
Theta_e
319 318 318 317 317 317 319 319 319 318 315 314 314 315 315 316 314 312 306 310 312 323 317 305 304 304 303 300 299 296 291 287 288 298 303 308 306 306 312 310 312 310 315 321 324
318 318 318 317 317 317 316 318 318 317 315 314 313 314 315 314 309 308 317 323 323 324 304 302 301 302 299 298 298 294 290 292 295 304 304 305 306 307 309 308 306 307 313 320 321
317 317 317 318 317 316 316 316 317 316 314 313 313 315 314 313 307 305 323 325 326 319 305 305 304 302 297 296 295 294 292 295 296 299 303 301 303 307 308 305 307 307 311 316 317
319 318 317 316 316 316 315 315 317 316 314 313 313 315 314 310 293 305 329 328 327 309 306 304 302 299 298 295 297 291 296 295 295 298 299 301 301 306 302 306 311 313 313 314 314
317 317 316 315 315 314 314 315 316 315 314 313 313 314 309 306 304 317 329 327 312 307 305 304 301 300 296 296 296 294 294 295 295 296 296 297 298 305 296 308 310 313 312 312 312
317 316 314 314 314 314 315 315 315 313 313 312 314 314 306 297 308 318 318 312 309 306 305 305 304 305 300 297 294 295 293 293 295 294 296 296 294 296 300 308 307 311 310 311 312
317 316 315 316 315 316 316 316 314 312 312 313 313 312 309 304 310 311 314 309 310 309 307 307 306 302 300 295 297 294 292 294 294 293 294 296 291 291 304 308 306 307 309 309 309
317 316 315 315 315 315 315 314 313 312 312 314 314 311 304 312 312 313 307 305 310 311 309 308 309 304 299 297 296 293 291 287 292 293 293 293 287 292 307 307 305 305 306 308 309
316 315 315 314 314 313 313 313 311 310 313 315 309 307 301 312 308 309 307 304 307 308 308 308 305 299 297 292 289 290 285 287 290 293 293 291 288 293 305 307 304 304 305 307 308
315 315 314 314 313 313 312 313 313 312 312 315 314 303 304 301 308 305 306 306 305 305 303 301 297 294 292 289 284 285 286 285 287 291 291 290 289 295 295 305 300 301 303 304 304
315 315 314 313 313 312 310 305 302 301 307 301 300 301 305 310 306 302 304 304 304 302 296 299 294 289 291 292 292 291 289 287 287 292 291 291 292 294 294 298 299 300 301 302 302
314 314 314 314 313 312 305 302 303 306 300 307 307 307 309 308 300 300 305 300 299 294 297 294 290 294 297 296 294 292 289 288 291 294 292 291 291 295 297 297 299 299 300 300 301
313 314 313 313 312 308 304 308 315 311 300 302 307 304 302 306 300 298 302 301 297 295 294 292 293 298 297 295 294 293 290 289 290 291 292 290 288 292 297 299 301 301 301 301 302
313 313 312 312 306 305 303 309 316 309 290 294 299 303 304 304 299 303 304 301 298 293 294 294 298 296 294 294 293 289 295 293 291 288 285 288 282 288 292 295 298 299 299 299 301
312 312 312 311 306 306 309 321 317 305 279 295 298 305 303 300 299 299 304 301 294 295 294 292 294 294 293 293 295 292 296 293 291 288 287 289 284 286 294 293 296 297 299 299 301
312 312 311 308 305 311 317 312 305 291 280 293 299 296 297 298 297 298 301 304 300 297 296 294 297 295 294 297 296 297 295 293 291 288 282 288 285 284 289 293 296 298 300 301 301
311 312 310 312 312 319 313 302 289 283 295 291 293 296 295 294 296 297 296 295 292 289 289 294 294 296 297 294 296 294 290 281 281 280 281 289 286 287 292 295 298 298 299 301 301
311 310 310 312 315 316 304 294 283 292 292 295 294 294 293 295 295 296 294 292 295 292 289 287 286 293 297 293 292 290 290 283 281 278 281 288 284 288 295 297 300 300 300 300 299
310 306 309 317 312 309 298 285 287 292 295 294 294 291 291 294 295 294 291 291 292 293 290 288 288 295 295 295 295 291 286 290 284 282 279 283 288 293 295 295 297 299 299 298 298
308 307 309 316 314 306 293 289 295 301 297 296 289 293 289 292 292 292 291 295 293 295 296 293 287 293 294 296 296 291 294 285 283 277 278 280 283 285 291 293 296 296 296 297 297
304 299 305 314 304 297 287 291 300 303 301 296 294 292 293 291 293 292 292 295 297 297 296 293 290 289 293 290 289 291 288 287 286 281 277 274 281 289 294 295 295 295 296 296 296
299 294 312 303 293 292 293 299 302 298 301 300 299 296 294 294 293 293 293 295 298 298 291 293 288 284 288 292 294 291 289 287 279 280 279 278 280 290 293 296 296 295 296 296 296
303 305 312 301 287 286 294 299 300 297 298 298 297 298 298 295 291 294 295 298 297 296 293 293 287 282 285 288 291 288 290 289 285 282 281 274 279 293 293 294 294 294 294 294 294
302 295 300 300 295 293 293 296 295 300 299 299 298 299 297 295 296 293 294 298 296 295 299 296 289 285 282 284 287 285 288 288 286 279 280 280 282 288 291 292 293 293 293 293 293
301 296 299 292 295 292 295 297 295 294 299 299 296 297 295 291 292 291 295 295 295 298 295 292 286 286 286 287 287 285 286 288 286 285 282 283 284 287 291 292 292 293 293 292 293
303 297 295 292 298 296 294 296 296 296 297 295 295 296 296 293 294 292 295 293 290 294 292 292 284 284 285 287 286 284 286 286 285 285 286 285 285 290 292 293 292 293 292 292 293
305 305 298 292 293 293 294 297 298 299 298 299 298 295 292 295 296 296 296 296 294 293 290 287 283 281 278 282 281 278 284 286 286 287 286 283 287 291 290 292 292 292 292 292 292

GFSSW_sfc_thetae_033.txt.gz
Theta_e
318 317 317 317 317 317 317 316 316 318 318 315 314 314 314 315 314 312 307 312 313 323 317 308 308 308 309 307 305 302 298 293 296 303 305 312 310 314 316 313 314 312 323 327 331
318 318 318 317 317 317 316 316 315 317 317 314 313 313 314 314 309 308 317 323 323 324 308 307 305 307 305 305 304 301 297 296 299 307 307 309 311 311 312 311 309 314 323 329 328
319 318 317 317 316 317 316 315 315 316 316 314 313 313 314 313 307 306 323 324 325 322 309 308 307 306 303 303 302 300 298 299 300 309 310 309 307 313 311 309 311 313 321 326 325
319 319 319 318 316 316 315 314 314 316 316 314 313 314 314 311 297 310 330 327 327 311 309 307 306 303 302 301 303 298 299 299 299 302 305 307 309 311 313 311 316 320 324 324 324
318 318 318 316 315 315 314 314 314 316 314 313 312 314 311 308 306 319 328 328 316 309 307 305 303 303 301 301 300 298 298 298 298 301 304 305 308 311 308 311 318 321 322 322 323
317 317 317 315 314 314 313 313 314 314 313 312 313 313 308 299 311 322 317 313 311 308 307 307 305 306 303 300 299 299 297 297 298 299 299 301 300 307 306 313 316 318 318 318 318
316 316 316 317 316 315 314 315 315 314 312 312 313 312 309 306 312 318 315 313 311 310 307 308 309 306 305 299 301 298 296 298 298 299 298 300 297 298 309 312 314 315 314 314 314
317 316 316 316 315 315 315 314 314 313 311 312 314 312 305 314 315 312 312 311 312 312 311 312 310 307 304 302 299 297 297 293 297 299 298 299 293 297 310 309 310 311 311 312 313
316 316 315 314 314 313 314 313 313 311 311 315 310 309 303 314 310 312 311 307 309 311 312 310 310 304 301 297 295 295 291 293 295 299 298 298 294 300 310 309 307 309 310 311 313
316 315 315 314 313 313 312 313 313 312 312 314 313 305 306 304 310 308 310 310 310 308 306 305 302 298 297 296 290 292 292 293 294 297 297 296 297 300 299 309 307 307 309 310 310
315 315 314 314 313 312 311 309 304 303 308 303 303 303 305 311 309 306 309 310 310 306 301 301 298 295 297 297 295 294 294 293 295 297 299 297 297 299 300 305 306 307 308 309 309
314 314 314 314 313 312 308 303 305 310 303 308 307 307 309 310 304 304 310 306 305 299 301 299 295 298 300 298 296 295 294 294 296 296 298 296 297 300 302 302 305 307 307 308 309
313 314 314 313 312 311 306 308 315 316 306 304 307 306 305 308 303 303 308 305 302 299 297 297 297 300 299 297 297 296 295 294 294 296 297 296 295 297 300 303 303 305 307 309 312
313 313 312 311 307 307 305 311 312 315 294 296 301 303 305 306 303 306 308 306 301 297 298 298 300 298 297 297 297 294 298 296 295 294 291 294 290 294 298 299 301 304 307 309 309
312 312 312 312 306 305 309 320 314 308 283 297 300 307 305 302 302 303 308 305 299 298 299 297 298 297 297 296 299 296 299 297 295 294 294 294 292 293 298 297 300 303 305 306 308
312 312 311 310 307 311 318 315 310 294 284 295 300 299 300 301 300 303 305 306 303 300 300 298 301 300 299 299 299 300 299 297 296 294 289 292 291 292 295 298 301 304 305 305 307
312 312 311 311 309 321 316 306 292 287 297 293 295 298 298 297 298 300 299 298 296 294 293 297 297 300 301 299 300 299 296 289 288 289 287 292 290 294 296 299 304 304 304 305 307
311 310 310 311 315 316 307 297 287 293 293 297 296 297 295 297 298 298 297 295 298 296 293 292 290 297 300 298 297 295 296 290 282 284 288 291 289 294 299 301 306 306 306 306 307
310 308 307 314 314 311 300 289 289 292 297 295 296 294 295 297 297 296 295 295 296 298 294 292 291 298 298 300 300 295 291 295 288 285 286 289 293 297 298 299 302 304 304 305 306
306 305 308 319 316 306 296 290 294 300 299 297 292 295 292 295 295 295 295 298 296 299 300 296 291 296 298 300 299 297 297 290 289 282 281 285 287 291 295 297 300 302 303 305 305
307 303 310 317 308 300 291 292 300 305 302 297 295 294 295 294 295 294 295 298 300 299 300 297 295 293 297 295 294 295 292 290 291 287 282 281 286 296 297 299 300 303 304 303 303
301 295 314 306 296 294 293 297 302 301 303 302 300 298 296 297 296 295 295 298 301 302 297 297 293 290 293 296 298 296 294 292 287 284 285 285 287 295 298 301 302 303 301 302 302
300 306 314 304 290 290 296 300 302 299 300 301 300 301 301 297 294 297 297 301 300 299 297 297 292 288 289 293 296 294 294 291 289 288 285 286 287 295 298 298 301 301 300 300 300
304 298 303 300 297 295 296 297 298 302 301 301 300 301 300 298 298 296 297 300 300 299 298 299 292 291 288 289 291 290 292 291 291 287 286 287 289 292 296 297 298 299 300 299 298
302 299 302 294 295 295 297 298 297 297 301 301 300 300 298 294 295 294 298 297 298 299 298 296 291 291 290 290 290 289 290 290 289 289 288 289 288 292 295 299 299 299 298 297 297
301 297 296 295 298 296 296 297 297 298 300 299 298 300 300 296 297 295 297 296 293 297 296 294 290 289 288 289 288 288 289 290 290 289 290 289 289 295 296 297 297 297 297 296 297
307 304 300 292 295 293 294 297 298 301 301 300 300 298 296 299 300 299 298 298 297 296 293 291 289 287 284 284 285 284 288 290 289 290 292 288 294 296 295 295 297 297 297 297 297

GFSSW_sfc_thetae_036.txt.gz
Theta_e
319 318 317 319 318 317 317 316 316 317 318 317 315 314 314 315 315 316 311 315 317 325 319 314 313 312 311 309 311 310 302 301 307 309 310 315 313 316 316 315 318 320 324 331 335
320 319 319 318 317 318 317 316 316 316 317 317 314 314 314 315 314 312 319 324 324 325 313 311 306 310 307 307 309 306 302 301 306 311 309 312 311 312 312 314 314 318 330 333 333
319 319 318 318 319 318 316 316 316 316 317 316 314 313 315 315 312 309 325 325 325 323 314 314 312 309 304 307 307 306 303 305 305 311 312 312 312 316 314 312 317 317 327 328 330
318 318 319 319 317 317 315 315 315 315 316 316 314 313 314 314 300 315 329 329 326 319 315 312 310 306 303 302 307 303 306 305 303 311 311 309 314 312 316 314 319 321 331 331 329
318 318 318 318 317 315 314 314 314 315 316 314 313 314 315 311 309 323 328 327 319 314 314 311 307 306 302 305 306 304 304 302 304 308 312 313 312 312 314 318 322 327 329 328 328
317 317 317 317 317 315 314 314 314 315 315 312 312 314 313 304 315 323 323 319 316 313 313 313 308 309 307 305 305 305 302 300 302 306 310 310 311 315 313 321 323 326 325 323 321
316 316 316 317 317 315 315 315 315 315 313 311 314 314 312 310 317 323 319 317 318 315 312 314 313 309 309 305 303 303 300 302 303 306 305 311 305 302 313 319 321 321 321 320 317
316 316 316 316 316 315 315 315 315 314 312 312 314 313 309 317 320 318 319 317 318 318 316 315 315 310 308 306 303 300 301 297 302 305 303 306 299 304 313 316 317 318 319 319 318
316 316 315 315 314 314 314 314 314 312 311 314 313 313 307 318 312 316 318 312 314 315 316 314 313 308 306 301 298 300 295 296 298 303 303 302 299 304 315 314 315 317 317 317 317
315 315 315 314 314 313 313 313 312 312 314 315 317 311 314 308 313 315 315 314 312 312 310 308 308 303 303 300 293 295 295 297 297 301 303 301 302 304 313 313 313 316 317 317 317
315 316 315 314 314 313 313 315 311 310 312 309 306 308 308 314 315 311 312 313 312 310 303 306 302 298 300 301 301 299 299 298 300 302 302 300 302 304 309 313 313 314 315 317 318
315 315 314 314 314 313 316 310 310 316 306 311 310 310 312 313 307 309 313 307 306 302 305 303 300 302 303 302 301 300 299 299 300 301 302 302 302 304 306 312 314 314 315 316 316
314 314 314 313 312 312 313 312 321 319 310 307 310 308 308 311 306 307 310 309 304 302 303 300 301 304 303 301 300 300 299 299 298 300 303 303 301 303 305 308 311 313 316 317 318
314 313 313 312 310 315 311 316 318 319 302 299 303 307 308 310 304 310 312 309 305 300 303 302 304 302 302 300 302 298 302 301 299 299 295 302 293 301 305 304 307 311 314 317 319
313 313 312 313 314 310 314 318 322 318 287 301 303 312 310 306 306 306 313 309 302 302 302 300 302 301 300 300 302 300 303 301 300 300 299 298 295 300 304 303 305 309 313 317 319
312 312 312 312 316 318 325 328 321 301 287 298 304 303 303 304 304 307 308 310 309 304 305 303 306 305 303 304 304 305 303 303 302 301 292 297 296 296 300 303 306 309 314 316 316
312 312 313 317 310 329 326 319 299 292 300 297 299 302 302 300 301 304 303 303 300 298 298 301 302 305 306 302 305 304 300 293 291 291 290 297 295 297 302 305 308 309 313 314 315
311 311 313 316 320 324 321 308 291 295 297 301 300 301 298 301 301 302 302 299 302 302 299 296 294 301 304 303 300 300 299 293 283 287 292 296 293 300 304 306 310 313 314 313 313
310 312 313 318 320 321 311 298 295 298 302 299 300 297 298 300 300 301 301 301 302 304 297 296 295 302 302 304 304 299 297 301 294 291 291 295 298 303 304 304 308 311 312 312 312
313 310 312 320 322 315 307 297 300 304 302 301 295 299 296 299 298 299 300 302 301 303 306 302 295 300 301 304 304 302 303 294 296 285 283 291 292 295 300 302 306 309 310 311 312
313 306 318 326 323 311 300 299 302 309 306 300 298 298 299 298 299 298 299 301 303 303 306 304 300 297 300 299 298 299 298 297 297 294 287 286 292 302 301 304 305 309 311 311 312
311 302 323 323 307 309 301 302 303 305 308 304 304 302 300 301 300 298 298 301 306 305 302 303 302 296 297 301 302 301 300 299 292 289 293 292 291 300 304 306 307 308 310 312 313
306 310 317 314 301 302 303 302 307 303 305 305 303 304 305 302 298 301 302 303 305 304 303 303 299 293 294 298 301 299 300 299 296 296 291 290 291 301 303 304 307 308 310 310 310
309 304 311 310 308 305 301 301 302 306 305 306 305 307 305 302 304 301 302 302 303 303 299 302 300 297 292 295 299 296 298 298 297 292 291 292 294 297 300 303 305 307 309 309 308
311 306 310 301 301 304 304 302 301 302 306 307 304 305 304 300 301 301 303 300 302 300 303 304 297 297 296 295 295 295 296 297 295 296 292 294 294 297 300 302 304 308 308 307 306
308 307 307 307 305 303 300 301 302 303 304 303 304 305 306 303 303 301 303 302 301 303 302 301 297 296 293 295 294 293 296 296 297 297 296 297 296 302 303 303 304 305 306 305 305
317 311 310 299 302 301 301 303 303 307 305 305 308 306 304 304 307 308 307 306 304 303 301 300 297 294 289 291 291 289 295 296 296 299 298 294 299 301 300 301 303 304 305 305 305

GFSSW_sfc_thetae_039.txt.gz
Theta_e
320 319 319 320 319 318 318 318 317 317 317 318 317 316 315 315 315 317 313 316 319 326 319 317 315 314 314 311 312 313 304 301 304 308 310 316 313 317 319 315 317 322 324 331 337
320 320 320 320 319 319 318 317 317 317 316 317 317 315 315 315 315 313 321 326 325 326 314 313 310 311 308 309 309 306 302 303 314 312 307 315 313 313 312 311 311 318 328 335 335
319 319 319 319 320 319 318 316 316 316 316 317 317 315 314 316 314 312 329 326 325 324 317 316 312 309 306 308 308 307 303 307 308 313 312 311 311 315 312 310 315 316 328 330 332
319 319 319 319 319 318 316 315 315 315 315 317 316 314 315 317 303 318 331 328 326 319 316 314 310 306 305 303 308 303 307 308 308 310 312 310 314 313 313 314 319 323 331 331 331
318 318 318 318 318 318 315 314 314 314 315 315 314 314 316 313 310 325 329 329 320 317 314 311 308 307 303 304 306 304 307 306 307 310 311 312 311 312 313 316 318 327 331 331 330
317 317 317 318 318 318 315 315 314 315 315 314 313 314 315 305 317 322 322 320 316 316 314 314 310 310 308 306 306 308 307 305 308 310 312 310 311 313 315 318 320 326 326 327 328
317 317 316 317 318 317 317 315 314 315 314 312 313 316 313 311 319 324 322 318 320 316 313 315 315 310 311 307 308 305 301 304 304 308 309 312 307 309 316 318 319 323 323 322 322
317 316 316 316 316 316 316 316 316 315 312 312 314 318 309 320 322 320 322 320 321 320 317 318 317 313 311 310 305 302 302 298 305 308 309 310 300 308 315 316 315 317 317 315 316
317 316 315 315 315 315 315 315 314 313 312 313 316 316 309 318 313 318 320 315 317 318 318 316 315 310 309 303 298 301 296 298 301 308 307 307 301 308 314 315 314 315 316 315 315
316 316 315 315 315 314 314 314 313 311 314 318 318 313 317 310 314 317 319 316 315 315 313 311 310 305 305 301 293 296 297 299 298 303 304 301 302 307 312 313 314 315 315 316 316
316 315 316 315 315 314 314 317 313 312 314 309 310 309 310 315 317 315 316 314 314 312 306 309 303 299 301 303 303 300 299 298 301 303 301 301 302 305 310 311 312 315 316 317 318
315 315 316 315 315 313 317 312 313 318 309 312 311 312 314 315 308 312 315 309 308 304 306 303 299 304 305 303 302 300 299 298 302 303 302 301 301 305 309 310 312 313 316 317 319
315 315 315 314 313 313 315 315 323 322 312 309 310 309 311 312 308 309 312 310 306 303 303 300 303 306 303 302 300 300 299 299 299 302 303 303 301 304 308 312 314 315 317 318 319
314 314 313 312 310 317 314 319 321 322 305 302 305 308 310 311 306 313 313 310 306 301 303 302 306 304 302 300 302 298 304 302 300 300 295 304 293 302 306 307 311 313 316 317 319
313 313 312 312 319 313 318 319 323 324 290 303 305 315 311 307 307 308 314 310 303 302 304 301 303 302 300 302 304 301 305 303 302 300 299 300 296 298 306 304 307 311 315 318 320
313 313 312 313 317 320 324 323 322 303 290 299 305 304 304 306 305 308 308 311 311 304 303 302 309 306 305 305 305 306 303 303 303 300 293 298 297 297 301 305 308 311 314 318 321
313 312 313 319 313 323 325 324 302 293 302 298 300 304 303 302 303 304 303 303 300 296 298 303 303 307 307 303 306 305 301 294 292 292 291 300 296 298 304 307 309 310 314 318 320
311 311 313 318 322 328 323 311 294 298 300 303 302 302 299 302 302 302 301 299 303 303 298 296 295 303 307 305 302 302 301 294 286 288 291 299 292 300 308 309 311 314 316 317 318
311 314 315 318 323 324 314 299 298 300 303 300 301 298 299 301 301 301 301 300 302 304 296 297 296 305 305 306 305 301 297 303 296 297 292 294 299 306 307 307 310 312 315 315 316
313 311 312 323 323 317 308 299 303 305 304 303 297 300 297 299 298 299 300 303 302 306 309 302 296 302 303 306 306 304 305 296 296 287 285 292 293 297 301 303 308 311 313 314 316
314 307 318 324 320 310 301 303 305 307 308 302 300 299 300 299 300 298 299 304 306 306 308 305 301 300 302 301 299 301 299 299 299 297 289 287 294 302 301 305 306 310 313 315 315
312 302 321 325 302 306 303 306 305 306 310 306 305 303 301 302 300 299 299 303 309 308 302 306 302 296 299 304 306 304 301 301 294 291 294 294 293 303 305 306 308 309 313 315 315
307 309 321 317 298 304 307 306 307 305 307 305 302 305 305 303 299 301 302 308 308 308 304 306 299 293 296 301 304 300 302 301 301 298 293 292 293 304 305 304 306 308 311 314 314
310 303 307 313 308 307 305 303 302 309 307 306 304 306 304 301 304 301 302 305 308 307 301 305 300 297 293 296 301 299 300 302 299 294 293 294 296 300 302 303 305 307 309 312 313
309 305 309 302 305 305 307 304 301 302 308 309 305 305 303 300 301 302 305 304 306 301 305 306 299 300 300 300 300 299 299 299 298 298 295 296 297 300 301 302 305 307 308 309 311
308 307 310 305 308 306 304 303 301 304 306 304 302 305 306 303 304 302 306 305 303 306 306 306 299 300 297 300 299 297 299 299 298 299 298 298 297 304 305 306 304 305 306 307 309
316 317 313 306 307 304 304 304 303 308 308 309 307 306 306 307 312 312 312 310 309 306 305 304 301 296 291 295 294 291 296 298 299 300 300 296 301 304 303 303 304 304 306 306 308

GFSSW_sfc_thetae_042.txt.gz
Theta_e
320 320 321 321 320 319 320 319 318 318 318 317 317 318 317 316 315 315 311 316 319 327 320 314 315 312 313 309 310 310 300 298 300 304 306 311 310 317 319 314 319 321 325 329 334
320 320 320 320 320 320 319 319 317 317 317 317 318 317 316 316 313 312 320 328 327 326 313 310 310 311 307 307 307 304 300 300 309 312 308 308 311 313 311 311 313 320 330 334 333
320 319 319 320 320 320 319 318 316 316 316 316 318 317 316 315 313 313 330 326 327 323 313 313 314 309 304 306 306 305 300 305 309 312 311 308 308 315 311 308 312 318 326 331 331
320 319 319 319 319 319 318 316 316 315 315 316 316 315 315 314 304 316 331 328 327 318 313 313 311 305 302 302 306 302 305 306 309 314 312 310 314 311 312 310 315 317 329 329 329
319 319 318 318 318 319 318 315 314 314 315 316 315 314 315 312 310 323 330 327 319 314 312 310 307 305 302 304 305 303 304 307 307 308 311 313 310 310 309 312 316 318 329 328 327
318 318 318 318 318 318 318 316 315 314 315 316 314 313 314 304 317 322 323 322 315 313 313 312 308 309 305 305 303 306 305 306 307 309 310 309 310 312 313 316 325 327 326 326 326
318 318 317 317 317 318 317 317 315 314 317 314 313 315 311 308 319 321 322 319 317 315 312 313 313 309 309 306 310 307 302 303 306 308 308 310 305 305 314 317 320 322 323 323 323
318 317 316 316 316 316 316 316 316 315 315 313 313 316 308 319 321 318 320 320 321 320 317 317 317 311 309 311 306 301 302 297 304 305 308 309 300 307 314 315 317 319 319 320 319
318 317 316 315 315 315 315 315 316 315 315 313 315 315 307 320 314 318 319 315 317 318 318 317 314 310 309 303 299 300 294 297 300 306 306 305 301 308 312 313 313 314 315 316 315
318 317 316 315 315 315 315 315 316 312 313 317 316 310 315 310 314 315 319 317 314 314 312 311 309 305 304 301 291 294 294 298 298 303 304 303 302 305 310 312 312 312 312 312 311
317 317 316 315 315 314 313 314 311 310 313 307 308 307 310 315 317 314 317 313 314 312 305 308 302 299 301 303 302 300 298 297 300 303 301 300 301 303 308 310 311 312 312 312 313
316 316 316 316 315 314 315 313 313 317 309 314 309 311 313 315 308 311 316 308 308 303 306 304 298 303 304 304 302 300 298 298 300 302 300 300 299 304 306 308 312 313 313 313 314
316 316 316 314 314 313 313 312 320 321 309 310 313 306 309 313 308 308 312 309 305 302 303 300 301 306 303 301 299 299 299 299 298 301 301 300 297 301 305 308 311 313 316 316 316
315 314 314 313 309 315 313 318 319 322 303 303 306 306 310 311 306 312 313 309 306 301 303 302 305 304 302 300 301 297 304 301 300 298 292 301 291 299 302 304 308 310 312 315 317
314 314 312 312 316 314 318 321 322 319 290 304 305 314 312 307 308 307 314 309 303 302 303 300 301 301 301 301 304 299 305 302 301 298 298 296 293 298 303 301 306 311 313 315 317
313 313 312 313 314 317 323 328 322 302 289 299 304 303 304 305 306 308 307 311 309 303 304 302 308 305 304 305 305 306 303 302 301 299 291 295 294 295 299 302 305 310 313 315 318
313 313 312 317 312 322 325 319 300 292 302 298 299 303 302 301 302 303 302 301 299 296 297 301 301 306 307 302 305 303 299 293 287 288 290 298 295 298 303 307 309 309 312 315 318
312 311 312 316 321 326 322 308 292 297 299 303 302 302 299 302 301 301 301 297 302 301 297 295 293 302 306 302 299 300 299 292 285 285 291 299 292 298 307 309 310 312 313 317 319
311 313 312 317 320 324 312 296 295 300 302 301 301 298 298 301 301 300 299 298 301 302 296 295 295 304 306 305 305 300 297 302 295 298 293 293 296 305 306 306 309 310 313 315 317
309 309 309 320 323 317 306 297 301 306 305 303 296 299 296 298 298 299 298 302 300 304 307 301 293 302 304 306 305 301 303 296 297 287 285 290 293 295 301 303 307 310 312 314 316
308 303 313 322 321 308 298 300 304 308 308 302 299 298 299 298 299 298 298 301 304 304 307 302 297 298 303 300 297 300 298 298 297 297 290 288 291 301 301 304 305 309 313 315 315
306 298 318 322 302 301 300 303 304 307 308 306 305 302 300 301 299 298 297 301 307 307 301 305 302 297 298 304 306 303 300 300 296 291 296 295 292 304 304 305 307 308 312 315 316
302 305 319 318 296 298 302 303 306 305 306 305 303 304 304 301 298 300 302 309 310 306 303 306 300 293 294 300 303 299 300 300 300 301 294 291 292 304 304 303 306 307 310 313 315
304 299 306 311 307 300 300 301 302 309 305 307 305 305 303 301 304 301 301 306 309 308 303 307 301 296 291 294 300 298 299 300 299 295 294 293 295 299 302 302 304 306 308 310 313
307 302 306 297 302 302 306 303 301 302 306 307 304 303 302 299 300 300 303 305 306 302 305 305 296 298 298 299 300 299 299 299 297 298 294 296 296 299 302 303 304 308 307 307 308
304 303 308 305 305 302 301 303 302 303 304 303 302 303 304 301 301 299 303 305 302 306 305 306 298 300 297 300 299 296 298 298 298 298 297 298 297 304 305 305 304 305 304 305 307
308 313 308 303 304 300 303 304 304 307 307 307 306 305 304 306 310 312 312 311 308 306 304 304 302 298 293 296 294 289 296 297 298 300 299 295 300 304 303 303 304 305 305 305 307

GFSSW_sfc_thetae_045.txt.gz
Theta_e
322 321 321 321 321 320 320 319 318 317 317 317 317 318 318 317 315 312 307 312 314 323 322 312 310 310 305 301 303 300 290 290 292 302 305 311 310 315 316 313 318 323 321 326 323
322 321 320 320 320 320 319 319 317 317 316 316 317 318 317 316 310 308 317 324 326 327 309 307 305 306 299 299 300 295 289 293 299 307 306 308 309 312 312 312 315 322 326 323 320
321 320 320 320 320 319 319 318 316 316 316 316 317 317 316 314 309 313 327 325 327 322 308 308 307 305 300 299 297 296 294 299 305 309 308 305 306 312 309 305 306 316 322 321 321
320 320 319 319 319 319 318 317 317 315 315 315 316 317 316 311 301 308 329 329 328 313 309 307 306 301 298 295 298 294 299 301 308 310 307 305 309 309 307 309 315 318 324 325 325
319 318 319 319 319 318 317 317 317 316 315 315 316 316 311 307 309 318 329 326 316 312 307 306 305 302 297 298 298 297 300 302 311 309 308 310 307 310 308 311 315 318 318 322 325
318 318 318 318 318 317 317 316 316 315 315 316 316 315 308 302 314 325 323 317 313 308 308 307 305 304 301 300 299 302 301 300 303 305 308 308 308 311 311 311 314 316 313 317 323
318 318 317 317 317 316 316 316 315 315 316 316 315 312 308 304 313 311 316 316 313 309 307 310 308 304 304 301 307 303 297 300 301 304 304 309 303 305 311 310 314 317 322 323 321
319 318 317 316 315 315 315 315 315 316 316 316 314 309 304 317 313 314 313 314 315 312 311 312 312 308 303 305 304 299 296 292 299 304 307 306 296 303 311 316 316 320 320 319 315
319 317 316 315 314 314 314 314 315 316 316 315 308 307 306 320 314 315 313 311 315 315 313 316 310 305 304 297 294 294 290 294 297 303 305 303 297 303 309 315 313 313 314 312 310
319 317 316 315 314 314 313 314 315 314 313 313 312 303 309 309 314 313 313 314 311 311 310 307 303 298 298 294 288 292 292 290 294 299 303 298 297 301 306 312 311 310 310 310 309
318 317 316 315 314 314 311 310 306 305 307 305 305 305 305 311 313 309 312 310 309 308 300 306 296 293 296 299 300 297 295 293 296 300 297 298 297 300 303 307 306 307 307 306 307
318 317 316 315 315 314 308 306 311 310 304 311 310 309 310 311 307 310 311 304 303 300 306 300 295 302 303 303 300 298 296 296 298 299 296 294 295 299 303 305 307 306 304 304 306
317 316 315 314 313 309 308 308 313 312 304 308 311 310 308 309 306 306 307 304 301 300 301 297 299 305 303 301 299 298 296 296 296 299 297 294 291 295 300 303 308 309 309 309 308
316 315 314 312 306 309 308 315 313 311 297 302 305 309 307 305 304 310 310 304 301 300 301 300 304 302 301 299 300 295 302 301 298 295 288 296 285 294 297 301 305 308 308 309 310
315 315 312 312 307 308 315 318 314 311 283 304 305 311 306 303 305 305 310 305 299 300 301 298 300 300 299 300 302 297 302 301 300 297 295 293 288 292 298 297 301 302 306 309 311
314 314 312 310 308 310 313 313 314 297 284 300 304 301 301 304 304 305 304 306 305 301 301 299 304 302 301 304 303 304 301 300 298 295 286 293 292 291 295 299 303 306 307 308 310
314 313 311 314 306 315 313 310 294 288 301 297 297 300 299 299 300 301 299 297 294 291 294 298 299 304 305 298 302 300 295 287 284 284 284 296 292 293 300 303 304 304 306 307 311
312 311 311 312 313 315 313 302 289 296 297 302 299 299 296 299 299 299 297 293 297 296 292 291 290 299 304 300 297 297 296 286 282 283 285 296 290 294 303 304 306 307 306 308 311
311 310 310 310 312 312 307 294 290 297 300 300 299 295 295 298 299 297 294 294 297 298 290 293 293 304 304 305 301 298 293 300 291 289 283 288 293 299 302 302 304 305 307 309 311
307 307 307 312 314 310 302 293 298 304 304 302 295 296 292 295 295 295 294 298 297 300 301 299 292 300 303 305 302 299 301 290 290 281 279 286 288 291 297 301 304 304 307 309 311
307 302 309 314 314 305 292 296 300 305 306 302 298 296 296 295 296 294 296 298 300 301 303 300 295 295 300 299 295 296 294 295 293 290 282 279 285 295 298 300 302 304 308 309 309
305 295 310 315 298 298 294 298 301 303 307 305 303 301 297 297 297 294 295 298 302 304 298 301 296 290 295 301 303 299 296 296 284 286 287 283 285 297 298 301 302 303 309 310 311
300 302 311 311 289 291 297 298 301 302 302 304 301 303 302 297 296 297 298 306 306 302 299 301 293 286 291 296 300 295 297 297 296 292 287 280 285 298 298 297 301 300 305 310 310
301 294 303 305 297 294 294 295 296 304 303 305 304 303 300 297 299 297 300 306 307 303 301 303 298 292 285 290 294 293 296 296 294 284 286 287 291 295 296 296 298 299 300 305 310
301 296 303 295 296 295 297 296 296 297 303 305 303 301 299 295 296 296 302 303 305 302 302 300 292 294 294 297 297 296 295 296 295 294 288 291 293 296 296 296 297 299 300 301 303
298 298 304 300 301 298 296 295 297 300 301 301 300 301 300 297 297 296 301 301 299 301 299 301 292 293 291 297 295 291 294 294 294 294 293 293 292 298 297 298 298 299 299 300 301
304 305 304 298 299 297 295 297 298 302 304 305 302 301 298 301 302 305 304 305 303 300 297 298 294 288 285 291 290 283 291 293 294 295 293 288 293 297 296 298 298 298 300 300 301